Date_Time,Julian_Date,Latitude,Longitude,Instrument_Depth,Water_Salinity
(yyyy-mm-dd hh:mn:ss UTC),(JD),(+ deg. North),(+ deg. East),(m),(ppt)
1984-08-29 17:30:00 UTC,2445942.229167,29.6633,-93.4786,0090,0.3320
1984-08-29 18:00:00 UTC,2445942.250000,29.6633,-93.4786,0090,0.3320
1984-08-29 18:30:00 UTC,2445942.270833,29.6633,-93.4786,0090,0.3320
1984-08-29 19:00:00 UTC,2445942.291667,29.6633,-93.4786,0090,0.3310
1984-08-29 19:30:00 UTC,2445942.312500,29.6633,-93.4786,0090,0.3300
1984-08-29 20:00:00 UTC,2445942.333333,29.6633,-93.4786,0090,0.3310
1984-08-29 20:30:00 UTC,2445942.354167,29.6633,-93.4786,0090,0.3310
1984-08-29 21:00:00 UTC,2445942.375000,29.6633,-93.4786,0090,0.3320
1984-08-29 21:30:00 UTC,2445942.395833,29.6633,-93.4786,0090,0.3320
1984-08-29 22:00:00 UTC,2445942.416667,29.6633,-93.4786,0090,0.3340
1984-08-29 22:30:00 UTC,2445942.437500,29.6633,-93.4786,0090,0.3380
1984-08-29 23:00:00 UTC,2445942.458333,29.6633,-93.4786,0090,0.3400
1984-08-29 23:30:00 UTC,2445942.479167,29.6633,-93.4786,0090,0.3390
1984-08-30 00:00:00 UTC,2445942.500000,29.6633,-93.4786,0090,0.3370
1984-08-30 00:30:00 UTC,2445942.520833,29.6633,-93.4786,0090,0.3390
1984-08-30 01:00:00 UTC,2445942.541667,29.6633,-93.4786,0090,0.3430
1984-08-30 01:30:00 UTC,2445942.562500,29.6633,-93.4786,0090,0.3440
1984-08-30 02:00:00 UTC,2445942.583333,29.6633,-93.4786,0090,0.3420
1984-08-30 02:30:00 UTC,2445942.604167,29.6633,-93.4786,0090,0.3420
1984-08-30 03:00:00 UTC,2445942.625000,29.6633,-93.4786,0090,0.3410
1984-08-30 03:30:00 UTC,2445942.645833,29.6633,-93.4786,0090,0.3370
1984-08-30 04:00:00 UTC,2445942.666667,29.6633,-93.4786,0090,0.3330
1984-08-30 04:30:00 UTC,2445942.687500,29.6633,-93.4786,0090,0.3310
1984-08-30 05:00:00 UTC,2445942.708333,29.6633,-93.4786,0090,0.3310
1984-08-30 05:30:00 UTC,2445942.729167,29.6633,-93.4786,0090,0.3310
1984-08-30 06:00:00 UTC,2445942.750000,29.6633,-93.4786,0090,0.3320
1984-08-30 06:30:00 UTC,2445942.770833,29.6633,-93.4786,0090,0.3320
1984-08-30 07:00:00 UTC,2445942.791667,29.6633,-93.4786,0090,0.3280
1984-08-30 07:30:00 UTC,2445942.812500,29.6633,-93.4786,0090,0.3240
1984-08-30 08:00:00 UTC,2445942.833333,29.6633,-93.4786,0090,0.3220
1984-08-30 08:30:00 UTC,2445942.854167,29.6633,-93.4786,0090,0.3210
1984-08-30 09:00:00 UTC,2445942.875000,29.6633,-93.4786,0090,0.3220
1984-08-30 09:30:00 UTC,2445942.895833,29.6633,-93.4786,0090,0.3230
1984-08-30 10:00:00 UTC,2445942.916667,29.6633,-93.4786,0090,0.3260
1984-08-30 10:30:00 UTC,2445942.937500,29.6633,-93.4786,0090,0.3330
1984-08-30 11:00:00 UTC,2445942.958333,29.6633,-93.4786,0090,0.3410
1984-08-30 11:30:00 UTC,2445942.979167,29.6633,-93.4786,0090,0.3410
1984-08-30 12:00:00 UTC,2445943.000000,29.6633,-93.4786,0090,0.3380
1984-08-30 12:30:00 UTC,2445943.020833,29.6633,-93.4786,0090,0.3360
1984-08-30 13:00:00 UTC,2445943.041667,29.6633,-93.4786,0090,0.3350
1984-08-30 13:30:00 UTC,2445943.062500,29.6633,-93.4786,0090,0.3380
1984-08-30 14:00:00 UTC,2445943.083333,29.6633,-93.4786,0090,0.3410
1984-08-30 14:30:00 UTC,2445943.104167,29.6633,-93.4786,0090,0.3420
1984-08-30 15:00:00 UTC,2445943.125000,29.6633,-93.4786,0090,0.3410
1984-08-30 15:30:00 UTC,2445943.145833,29.6633,-93.4786,0090,0.3400
1984-08-30 16:00:00 UTC,2445943.166667,29.6633,-93.4786,0090,0.3400
1984-08-30 16:30:00 UTC,2445943.187500,29.6633,-93.4786,0090,0.3420
1984-08-30 17:00:00 UTC,2445943.208333,29.6633,-93.4786,0090,0.3450
1984-08-30 17:30:00 UTC,2445943.229167,29.6633,-93.4786,0090,0.3460
1984-08-30 18:00:00 UTC,2445943.250000,29.6633,-93.4786,0090,0.3450
1984-08-30 18:30:00 UTC,2445943.270833,29.6633,-93.4786,0090,0.3430
1984-08-30 19:00:00 UTC,2445943.291667,29.6633,-93.4786,0090,0.3420
1984-08-30 19:30:00 UTC,2445943.312500,29.6633,-93.4786,0090,0.3400
1984-08-30 20:00:00 UTC,2445943.333333,29.6633,-93.4786,0090,0.3360
1984-08-30 20:30:00 UTC,2445943.354167,29.6633,-93.4786,0090,0.3340
1984-08-30 21:00:00 UTC,2445943.375000,29.6633,-93.4786,0090,0.3350
1984-08-30 21:30:00 UTC,2445943.395833,29.6633,-93.4786,0090,0.3380
1984-08-30 22:00:00 UTC,2445943.416667,29.6633,-93.4786,0090,0.3410
1984-08-30 22:30:00 UTC,2445943.437500,29.6633,-93.4786,0090,0.3450
1984-08-30 23:00:00 UTC,2445943.458333,29.6633,-93.4786,0090,0.3460
1984-08-30 23:30:00 UTC,2445943.479167,29.6633,-93.4786,0090,0.3470
1984-08-31 00:00:00 UTC,2445943.500000,29.6633,-93.4786,0090,0.3490
1984-08-31 00:30:00 UTC,2445943.520833,29.6633,-93.4786,0090,0.3490
1984-08-31 01:00:00 UTC,2445943.541667,29.6633,-93.4786,0090,0.3500
1984-08-31 01:30:00 UTC,2445943.562500,29.6633,-93.4786,0090,0.3540
1984-08-31 02:00:00 UTC,2445943.583333,29.6633,-93.4786,0090,0.3550
1984-08-31 02:30:00 UTC,2445943.604167,29.6633,-93.4786,0090,0.3530
1984-08-31 03:00:00 UTC,2445943.625000,29.6633,-93.4786,0090,0.3520
1984-08-31 03:30:00 UTC,2445943.645833,29.6633,-93.4786,0090,0.3520
1984-08-31 04:00:00 UTC,2445943.666667,29.6633,-93.4786,0090,0.3510
1984-08-31 04:30:00 UTC,2445943.687500,29.6633,-93.4786,0090,0.3490
1984-08-31 05:00:00 UTC,2445943.708333,29.6633,-93.4786,0090,0.3490
1984-08-31 05:30:00 UTC,2445943.729167,29.6633,-93.4786,0090,0.3500
1984-08-31 06:00:00 UTC,2445943.750000,29.6633,-93.4786,0090,0.3500
1984-08-31 06:30:00 UTC,2445943.770833,29.6633,-93.4786,0090,0.3510
1984-08-31 07:00:00 UTC,2445943.791667,29.6633,-93.4786,0090,0.3530
1984-08-31 07:30:00 UTC,2445943.812500,29.6633,-93.4786,0090,0.3570
1984-08-31 08:00:00 UTC,2445943.833333,29.6633,-93.4786,0090,0.3600
1984-08-31 08:30:00 UTC,2445943.854167,29.6633,-93.4786,0090,0.3630
1984-08-31 09:00:00 UTC,2445943.875000,29.6633,-93.4786,0090,0.3660
1984-08-31 09:30:00 UTC,2445943.895833,29.6633,-93.4786,0090,0.3670
1984-08-31 10:00:00 UTC,2445943.916667,29.6633,-93.4786,0090,0.3680
1984-08-31 10:30:00 UTC,2445943.937500,29.6633,-93.4786,0090,0.3680
1984-08-31 11:00:00 UTC,2445943.958333,29.6633,-93.4786,0090,0.3690
1984-08-31 11:30:00 UTC,2445943.979167,29.6633,-93.4786,0090,0.3700
1984-08-31 12:00:00 UTC,2445944.000000,29.6633,-93.4786,0090,0.3700
1984-08-31 12:30:00 UTC,2445944.020833,29.6633,-93.4786,0090,0.3690
1984-08-31 13:00:00 UTC,2445944.041667,29.6633,-93.4786,0090,0.3680
1984-08-31 13:30:00 UTC,2445944.062500,29.6633,-93.4786,0090,0.3650
1984-08-31 14:00:00 UTC,2445944.083333,29.6633,-93.4786,0090,0.3630
1984-08-31 14:30:00 UTC,2445944.104167,29.6633,-93.4786,0090,0.3620
1984-08-31 15:00:00 UTC,2445944.125000,29.6633,-93.4786,0090,0.3610
1984-08-31 15:30:00 UTC,2445944.145833,29.6633,-93.4786,0090,0.3610
1984-08-31 16:00:00 UTC,2445944.166667,29.6633,-93.4786,0090,0.3620
1984-08-31 16:30:00 UTC,2445944.187500,29.6633,-93.4786,0090,0.3600
1984-08-31 17:00:00 UTC,2445944.208333,29.6633,-93.4786,0090,0.3570
1984-08-31 17:30:00 UTC,2445944.229167,29.6633,-93.4786,0090,0.3540
1984-08-31 18:00:00 UTC,2445944.250000,29.6633,-93.4786,0090,0.3500
1984-08-31 18:30:00 UTC,2445944.270833,29.6633,-93.4786,0090,0.3500
1984-08-31 19:00:00 UTC,2445944.291667,29.6633,-93.4786,0090,0.3510
1984-08-31 19:30:00 UTC,2445944.312500,29.6633,-93.4786,0090,0.3530
1984-08-31 20:00:00 UTC,2445944.333333,29.6633,-93.4786,0090,0.3560
1984-08-31 20:30:00 UTC,2445944.354167,29.6633,-93.4786,0090,0.3610
1984-08-31 21:00:00 UTC,2445944.375000,29.6633,-93.4786,0090,0.3630
1984-08-31 21:30:00 UTC,2445944.395833,29.6633,-93.4786,0090,0.3630
1984-08-31 22:00:00 UTC,2445944.416667,29.6633,-93.4786,0090,0.3580
1984-08-31 22:30:00 UTC,2445944.437500,29.6633,-93.4786,0090,0.3520
1984-08-31 23:00:00 UTC,2445944.458333,29.6633,-93.4786,0090,0.3470
1984-08-31 23:30:00 UTC,2445944.479167,29.6633,-93.4786,0090,0.3450
1984-09-01 00:00:00 UTC,2445944.500000,29.6633,-93.4786,0090,0.3430
1984-09-01 00:30:00 UTC,2445944.520833,29.6633,-93.4786,0090,0.3410
1984-09-01 01:00:00 UTC,2445944.541667,29.6633,-93.4786,0090,0.3390
1984-09-01 01:30:00 UTC,2445944.562500,29.6633,-93.4786,0090,0.3380
1984-09-01 02:00:00 UTC,2445944.583333,29.6633,-93.4786,0090,0.3370
1984-09-01 02:30:00 UTC,2445944.604167,29.6633,-93.4786,0090,0.3380
1984-09-01 03:00:00 UTC,2445944.625000,29.6633,-93.4786,0090,0.3390
1984-09-01 03:30:00 UTC,2445944.645833,29.6633,-93.4786,0090,0.3410
1984-09-01 04:00:00 UTC,2445944.666667,29.6633,-93.4786,0090,0.3420
1984-09-01 04:30:00 UTC,2445944.687500,29.6633,-93.4786,0090,0.3430
1984-09-01 05:00:00 UTC,2445944.708333,29.6633,-93.4786,0090,0.3430
1984-09-01 05:30:00 UTC,2445944.729167,29.6633,-93.4786,0090,0.3430
1984-09-01 06:00:00 UTC,2445944.750000,29.6633,-93.4786,0090,0.3420
1984-09-01 06:30:00 UTC,2445944.770833,29.6633,-93.4786,0090,0.3410
1984-09-01 07:00:00 UTC,2445944.791667,29.6633,-93.4786,0090,0.3410
1984-09-01 07:30:00 UTC,2445944.812500,29.6633,-93.4786,0090,0.3400
1984-09-01 08:00:00 UTC,2445944.833333,29.6633,-93.4786,0090,0.3380
1984-09-01 08:30:00 UTC,2445944.854167,29.6633,-93.4786,0090,0.3380
1984-09-01 09:00:00 UTC,2445944.875000,29.6633,-93.4786,0090,0.3390
1984-09-01 09:30:00 UTC,2445944.895833,29.6633,-93.4786,0090,0.3390
1984-09-01 10:00:00 UTC,2445944.916667,29.6633,-93.4786,0090,0.3390
1984-09-01 10:30:00 UTC,2445944.937500,29.6633,-93.4786,0090,0.3400
1984-09-01 11:00:00 UTC,2445944.958333,29.6633,-93.4786,0090,0.3410
1984-09-01 11:30:00 UTC,2445944.979167,29.6633,-93.4786,0090,0.3420
1984-09-01 12:00:00 UTC,2445945.000000,29.6633,-93.4786,0090,0.3430
1984-09-01 12:30:00 UTC,2445945.020833,29.6633,-93.4786,0090,0.3440
1984-09-01 13:00:00 UTC,2445945.041667,29.6633,-93.4786,0090,0.3460
1984-09-01 13:30:00 UTC,2445945.062500,29.6633,-93.4786,0090,0.3470
1984-09-01 14:00:00 UTC,2445945.083333,29.6633,-93.4786,0090,0.3480
1984-09-01 14:30:00 UTC,2445945.104167,29.6633,-93.4786,0090,0.3480
1984-09-01 15:00:00 UTC,2445945.125000,29.6633,-93.4786,0090,0.3490
1984-09-01 15:30:00 UTC,2445945.145833,29.6633,-93.4786,0090,0.3500
1984-09-01 16:00:00 UTC,2445945.166667,29.6633,-93.4786,0090,0.3500
1984-09-01 16:30:00 UTC,2445945.187500,29.6633,-93.4786,0090,0.3480
1984-09-01 17:00:00 UTC,2445945.208333,29.6633,-93.4786,0090,0.3470
1984-09-01 17:30:00 UTC,2445945.229167,29.6633,-93.4786,0090,0.3480
1984-09-01 18:00:00 UTC,2445945.250000,29.6633,-93.4786,0090,0.3470
1984-09-01 18:30:00 UTC,2445945.270833,29.6633,-93.4786,0090,0.3460
1984-09-01 19:00:00 UTC,2445945.291667,29.6633,-93.4786,0090,0.3470
1984-09-01 19:30:00 UTC,2445945.312500,29.6633,-93.4786,0090,0.3450
1984-09-01 20:00:00 UTC,2445945.333333,29.6633,-93.4786,0090,0.3410
1984-09-01 20:30:00 UTC,2445945.354167,29.6633,-93.4786,0090,0.3390
1984-09-01 21:00:00 UTC,2445945.375000,29.6633,-93.4786,0090,0.3410
1984-09-01 21:30:00 UTC,2445945.395833,29.6633,-93.4786,0090,0.3450
1984-09-01 22:00:00 UTC,2445945.416667,29.6633,-93.4786,0090,0.3470
1984-09-01 22:30:00 UTC,2445945.437500,29.6633,-93.4786,0090,0.3490
1984-09-01 23:00:00 UTC,2445945.458333,29.6633,-93.4786,0090,0.3480
1984-09-01 23:30:00 UTC,2445945.479167,29.6633,-93.4786,0090,0.3430
1984-09-02 00:00:00 UTC,2445945.500000,29.6633,-93.4786,0090,0.3360
1984-09-02 00:30:00 UTC,2445945.520833,29.6633,-93.4786,0090,0.3320
1984-09-02 01:00:00 UTC,2445945.541667,29.6633,-93.4786,0090,0.3280
1984-09-02 01:30:00 UTC,2445945.562500,29.6633,-93.4786,0090,0.3240
1984-09-02 02:00:00 UTC,2445945.583333,29.6633,-93.4786,0090,0.3240
1984-09-02 02:30:00 UTC,2445945.604167,29.6633,-93.4786,0090,0.3240
1984-09-02 03:00:00 UTC,2445945.625000,29.6633,-93.4786,0090,0.3240
1984-09-02 03:30:00 UTC,2445945.645833,29.6633,-93.4786,0090,0.3260
1984-09-02 04:00:00 UTC,2445945.666667,29.6633,-93.4786,0090,0.3280
1984-09-02 04:30:00 UTC,2445945.687500,29.6633,-93.4786,0090,0.3240
1984-09-02 05:00:00 UTC,2445945.708333,29.6633,-93.4786,0090,0.3200
1984-09-02 05:30:00 UTC,2445945.729167,29.6633,-93.4786,0090,0.3180
1984-09-02 06:00:00 UTC,2445945.750000,29.6633,-93.4786,0090,0.3180
1984-09-02 06:30:00 UTC,2445945.770833,29.6633,-93.4786,0090,0.3220
1984-09-02 07:00:00 UTC,2445945.791667,29.6633,-93.4786,0090,0.3260
1984-09-02 07:30:00 UTC,2445945.812500,29.6633,-93.4786,0090,0.3300
1984-09-02 08:00:00 UTC,2445945.833333,29.6633,-93.4786,0090,0.3300
1984-09-02 08:30:00 UTC,2445945.854167,29.6633,-93.4786,0090,0.3300
1984-09-02 09:00:00 UTC,2445945.875000,29.6633,-93.4786,0090,0.3300
1984-09-02 09:30:00 UTC,2445945.895833,29.6633,-93.4786,0090,0.3280
1984-09-02 10:00:00 UTC,2445945.916667,29.6633,-93.4786,0090,0.3250
1984-09-02 10:30:00 UTC,2445945.937500,29.6633,-93.4786,0090,0.3270
1984-09-02 11:00:00 UTC,2445945.958333,29.6633,-93.4786,0090,0.3290
1984-09-02 11:30:00 UTC,2445945.979167,29.6633,-93.4786,0090,0.3250
1984-09-02 12:00:00 UTC,2445946.000000,29.6633,-93.4786,0090,0.3260
1984-09-02 12:30:00 UTC,2445946.020833,29.6633,-93.4786,0090,0.3300
1984-09-02 13:00:00 UTC,2445946.041667,29.6633,-93.4786,0090,0.3290
1984-09-02 13:30:00 UTC,2445946.062500,29.6633,-93.4786,0090,0.3240
1984-09-02 14:00:00 UTC,2445946.083333,29.6633,-93.4786,0090,0.3180
1984-09-02 14:30:00 UTC,2445946.104167,29.6633,-93.4786,0090,0.3150
1984-09-02 15:00:00 UTC,2445946.125000,29.6633,-93.4786,0090,0.3190
1984-09-02 15:30:00 UTC,2445946.145833,29.6633,-93.4786,0090,0.3270
1984-09-02 16:00:00 UTC,2445946.166667,29.6633,-93.4786,0090,0.3290
1984-09-02 16:30:00 UTC,2445946.187500,29.6633,-93.4786,0090,0.3280
1984-09-02 17:00:00 UTC,2445946.208333,29.6633,-93.4786,0090,0.3260
1984-09-02 17:30:00 UTC,2445946.229167,29.6633,-93.4786,0090,0.3220
1984-09-02 18:00:00 UTC,2445946.250000,29.6633,-93.4786,0090,0.3200
1984-09-02 18:30:00 UTC,2445946.270833,29.6633,-93.4786,0090,0.3240
1984-09-02 19:00:00 UTC,2445946.291667,29.6633,-93.4786,0090,0.3300
1984-09-02 19:30:00 UTC,2445946.312500,29.6633,-93.4786,0090,0.3280
1984-09-02 20:00:00 UTC,2445946.333333,29.6633,-93.4786,0090,0.3190
1984-09-02 20:30:00 UTC,2445946.354167,29.6633,-93.4786,0090,0.3130
1984-09-02 21:00:00 UTC,2445946.375000,29.6633,-93.4786,0090,0.3130
1984-09-02 21:30:00 UTC,2445946.395833,29.6633,-93.4786,0090,0.3140
1984-09-02 22:00:00 UTC,2445946.416667,29.6633,-93.4786,0090,0.3140
1984-09-02 22:30:00 UTC,2445946.437500,29.6633,-93.4786,0090,0.3140
1984-09-02 23:00:00 UTC,2445946.458333,29.6633,-93.4786,0090,0.3170
1984-09-02 23:30:00 UTC,2445946.479167,29.6633,-93.4786,0090,0.3180
1984-09-03 00:00:00 UTC,2445946.500000,29.6633,-93.4786,0090,0.3160
1984-09-03 00:30:00 UTC,2445946.520833,29.6633,-93.4786,0090,0.3190
1984-09-03 01:00:00 UTC,2445946.541667,29.6633,-93.4786,0090,0.3220
1984-09-03 01:30:00 UTC,2445946.562500,29.6633,-93.4786,0090,0.3220
1984-09-03 02:00:00 UTC,2445946.583333,29.6633,-93.4786,0090,0.3230
1984-09-03 02:30:00 UTC,2445946.604167,29.6633,-93.4786,0090,0.3240
1984-09-03 03:00:00 UTC,2445946.625000,29.6633,-93.4786,0090,0.3270
1984-09-03 03:30:00 UTC,2445946.645833,29.6633,-93.4786,0090,0.3270
1984-09-03 04:00:00 UTC,2445946.666667,29.6633,-93.4786,0090,0.3260
1984-09-03 04:30:00 UTC,2445946.687500,29.6633,-93.4786,0090,0.3290
1984-09-03 05:00:00 UTC,2445946.708333,29.6633,-93.4786,0090,0.3290
1984-09-03 05:30:00 UTC,2445946.729167,29.6633,-93.4786,0090,0.3280
1984-09-03 06:00:00 UTC,2445946.750000,29.6633,-93.4786,0090,0.3340
1984-09-03 06:30:00 UTC,2445946.770833,29.6633,-93.4786,0090,0.3360
1984-09-03 07:00:00 UTC,2445946.791667,29.6633,-93.4786,0090,0.3320
1984-09-03 07:30:00 UTC,2445946.812500,29.6633,-93.4786,0090,0.3330
1984-09-03 08:00:00 UTC,2445946.833333,29.6633,-93.4786,0090,0.3330
1984-09-03 08:30:00 UTC,2445946.854167,29.6633,-93.4786,0090,0.3310
1984-09-03 09:00:00 UTC,2445946.875000,29.6633,-93.4786,0090,0.3290
1984-09-03 09:30:00 UTC,2445946.895833,29.6633,-93.4786,0090,0.3270
1984-09-03 10:00:00 UTC,2445946.916667,29.6633,-93.4786,0090,0.3270
1984-09-03 10:30:00 UTC,2445946.937500,29.6633,-93.4786,0090,0.3300
1984-09-03 11:00:00 UTC,2445946.958333,29.6633,-93.4786,0090,0.3340
1984-09-03 11:30:00 UTC,2445946.979167,29.6633,-93.4786,0090,0.3320
1984-09-03 12:00:00 UTC,2445947.000000,29.6633,-93.4786,0090,0.3260
1984-09-03 12:30:00 UTC,2445947.020833,29.6633,-93.4786,0090,0.3270
1984-09-03 13:00:00 UTC,2445947.041667,29.6633,-93.4786,0090,0.3340
1984-09-03 13:30:00 UTC,2445947.062500,29.6633,-93.4786,0090,0.3370
1984-09-03 14:00:00 UTC,2445947.083333,29.6633,-93.4786,0090,0.3370
1984-09-03 14:30:00 UTC,2445947.104167,29.6633,-93.4786,0090,0.3350
1984-09-03 15:00:00 UTC,2445947.125000,29.6633,-93.4786,0090,0.3310
1984-09-03 15:30:00 UTC,2445947.145833,29.6633,-93.4786,0090,0.3270
1984-09-03 16:00:00 UTC,2445947.166667,29.6633,-93.4786,0090,0.3270
1984-09-03 16:30:00 UTC,2445947.187500,29.6633,-93.4786,0090,0.3280
1984-09-03 17:00:00 UTC,2445947.208333,29.6633,-93.4786,0090,0.3280
1984-09-03 17:30:00 UTC,2445947.229167,29.6633,-93.4786,0090,0.3300
1984-09-03 18:00:00 UTC,2445947.250000,29.6633,-93.4786,0090,0.3310
1984-09-03 18:30:00 UTC,2445947.270833,29.6633,-93.4786,0090,0.3310
1984-09-03 19:00:00 UTC,2445947.291667,29.6633,-93.4786,0090,0.3340
1984-09-03 19:30:00 UTC,2445947.312500,29.6633,-93.4786,0090,0.3350
1984-09-03 20:00:00 UTC,2445947.333333,29.6633,-93.4786,0090,0.3310
1984-09-03 20:30:00 UTC,2445947.354167,29.6633,-93.4786,0090,0.3280
1984-09-03 21:00:00 UTC,2445947.375000,29.6633,-93.4786,0090,0.3290
1984-09-03 21:30:00 UTC,2445947.395833,29.6633,-93.4786,0090,0.3320
1984-09-03 22:00:00 UTC,2445947.416667,29.6633,-93.4786,0090,0.3320
1984-09-03 22:30:00 UTC,2445947.437500,29.6633,-93.4786,0090,0.3350
1984-09-03 23:00:00 UTC,2445947.458333,29.6633,-93.4786,0090,0.3390
1984-09-03 23:30:00 UTC,2445947.479167,29.6633,-93.4786,0090,0.3420
1984-09-04 00:00:00 UTC,2445947.500000,29.6633,-93.4786,0090,0.3440
1984-09-04 00:30:00 UTC,2445947.520833,29.6633,-93.4786,0090,0.3440
1984-09-04 01:00:00 UTC,2445947.541667,29.6633,-93.4786,0090,0.3430
1984-09-04 01:30:00 UTC,2445947.562500,29.6633,-93.4786,0090,0.3440
1984-09-04 02:00:00 UTC,2445947.583333,29.6633,-93.4786,0090,0.3490
1984-09-04 02:30:00 UTC,2445947.604167,29.6633,-93.4786,0090,0.3500
1984-09-04 03:00:00 UTC,2445947.625000,29.6633,-93.4786,0090,0.3460
1984-09-04 03:30:00 UTC,2445947.645833,29.6633,-93.4786,0090,0.3460
1984-09-04 04:00:00 UTC,2445947.666667,29.6633,-93.4786,0090,0.3490
1984-09-04 04:30:00 UTC,2445947.687500,29.6633,-93.4786,0090,0.3470
1984-09-04 05:00:00 UTC,2445947.708333,29.6633,-93.4786,0090,0.3410
1984-09-04 05:30:00 UTC,2445947.729167,29.6633,-93.4786,0090,0.3400
1984-09-04 06:00:00 UTC,2445947.750000,29.6633,-93.4786,0090,0.3400
1984-09-04 06:30:00 UTC,2445947.770833,29.6633,-93.4786,0090,0.3400
1984-09-04 07:00:00 UTC,2445947.791667,29.6633,-93.4786,0090,0.3370
1984-09-04 07:30:00 UTC,2445947.812500,29.6633,-93.4786,0090,0.3280
1984-09-04 08:00:00 UTC,2445947.833333,29.6633,-93.4786,0090,0.3230
1984-09-04 08:30:00 UTC,2445947.854167,29.6633,-93.4786,0090,0.3290
1984-09-04 09:00:00 UTC,2445947.875000,29.6633,-93.4786,0090,0.3320
1984-09-04 09:30:00 UTC,2445947.895833,29.6633,-93.4786,0090,0.3270
1984-09-04 10:00:00 UTC,2445947.916667,29.6633,-93.4786,0090,0.3250
1984-09-04 10:30:00 UTC,2445947.937500,29.6633,-93.4786,0090,0.3270
1984-09-04 11:00:00 UTC,2445947.958333,29.6633,-93.4786,0090,0.3250
1984-09-04 11:30:00 UTC,2445947.979167,29.6633,-93.4786,0090,0.3220
1984-09-04 12:00:00 UTC,2445948.000000,29.6633,-93.4786,0090,0.3230
1984-09-04 12:30:00 UTC,2445948.020833,29.6633,-93.4786,0090,0.3240
1984-09-04 13:00:00 UTC,2445948.041667,29.6633,-93.4786,0090,0.3230
1984-09-04 13:30:00 UTC,2445948.062500,29.6633,-93.4786,0090,0.3230
1984-09-04 14:00:00 UTC,2445948.083333,29.6633,-93.4786,0090,0.3270
1984-09-04 14:30:00 UTC,2445948.104167,29.6633,-93.4786,0090,0.3290
1984-09-04 15:00:00 UTC,2445948.125000,29.6633,-93.4786,0090,0.3300
1984-09-04 15:30:00 UTC,2445948.145833,29.6633,-93.4786,0090,0.3300
1984-09-04 16:00:00 UTC,2445948.166667,29.6633,-93.4786,0090,0.3290
1984-09-04 16:30:00 UTC,2445948.187500,29.6633,-93.4786,0090,0.3290
1984-09-04 17:00:00 UTC,2445948.208333,29.6633,-93.4786,0090,0.3280
1984-09-04 17:30:00 UTC,2445948.229167,29.6633,-93.4786,0090,0.3280
1984-09-04 18:00:00 UTC,2445948.250000,29.6633,-93.4786,0090,0.3290
1984-09-04 18:30:00 UTC,2445948.270833,29.6633,-93.4786,0090,0.3310
1984-09-04 19:00:00 UTC,2445948.291667,29.6633,-93.4786,0090,0.3330
1984-09-04 19:30:00 UTC,2445948.312500,29.6633,-93.4786,0090,0.3330
1984-09-04 20:00:00 UTC,2445948.333333,29.6633,-93.4786,0090,0.3320
1984-09-04 20:30:00 UTC,2445948.354167,29.6633,-93.4786,0090,0.3330
1984-09-04 21:00:00 UTC,2445948.375000,29.6633,-93.4786,0090,0.3350
1984-09-04 21:30:00 UTC,2445948.395833,29.6633,-93.4786,0090,0.3350
1984-09-04 22:00:00 UTC,2445948.416667,29.6633,-93.4786,0090,0.3320
1984-09-04 22:30:00 UTC,2445948.437500,29.6633,-93.4786,0090,0.3300
1984-09-04 23:00:00 UTC,2445948.458333,29.6633,-93.4786,0090,0.3280
1984-09-04 23:30:00 UTC,2445948.479167,29.6633,-93.4786,0090,0.3240
1984-09-05 00:00:00 UTC,2445948.500000,29.6633,-93.4786,0090,0.3170
1984-09-05 00:30:00 UTC,2445948.520833,29.6633,-93.4786,0090,0.3120
1984-09-05 01:00:00 UTC,2445948.541667,29.6633,-93.4786,0090,0.3120
1984-09-05 01:30:00 UTC,2445948.562500,29.6633,-93.4786,0090,0.3120
1984-09-05 02:00:00 UTC,2445948.583333,29.6633,-93.4786,0090,0.3100
1984-09-05 02:30:00 UTC,2445948.604167,29.6633,-93.4786,0090,0.3080
1984-09-05 03:00:00 UTC,2445948.625000,29.6633,-93.4786,0090,0.3070
1984-09-05 03:30:00 UTC,2445948.645833,29.6633,-93.4786,0090,0.3050
1984-09-05 04:00:00 UTC,2445948.666667,29.6633,-93.4786,0090,0.3040
1984-09-05 04:30:00 UTC,2445948.687500,29.6633,-93.4786,0090,0.3050
1984-09-05 05:00:00 UTC,2445948.708333,29.6633,-93.4786,0090,0.3080
1984-09-05 05:30:00 UTC,2445948.729167,29.6633,-93.4786,0090,0.3090
1984-09-05 06:00:00 UTC,2445948.750000,29.6633,-93.4786,0090,0.3080
1984-09-05 06:30:00 UTC,2445948.770833,29.6633,-93.4786,0090,0.3070
1984-09-05 07:00:00 UTC,2445948.791667,29.6633,-93.4786,0090,0.3080
1984-09-05 07:30:00 UTC,2445948.812500,29.6633,-93.4786,0090,0.3090
1984-09-05 08:00:00 UTC,2445948.833333,29.6633,-93.4786,0090,0.3110
1984-09-05 08:30:00 UTC,2445948.854167,29.6633,-93.4786,0090,0.3120
1984-09-05 09:00:00 UTC,2445948.875000,29.6633,-93.4786,0090,0.3120
1984-09-05 09:30:00 UTC,2445948.895833,29.6633,-93.4786,0090,0.3130
1984-09-05 10:00:00 UTC,2445948.916667,29.6633,-93.4786,0090,0.3140
1984-09-05 10:30:00 UTC,2445948.937500,29.6633,-93.4786,0090,0.3130
1984-09-05 11:00:00 UTC,2445948.958333,29.6633,-93.4786,0090,0.3100
1984-09-05 11:30:00 UTC,2445948.979167,29.6633,-93.4786,0090,0.3080
1984-09-05 12:00:00 UTC,2445949.000000,29.6633,-93.4786,0090,0.3070
1984-09-05 12:30:00 UTC,2445949.020833,29.6633,-93.4786,0090,0.3040
1984-09-05 13:00:00 UTC,2445949.041667,29.6633,-93.4786,0090,0.3030
1984-09-05 13:30:00 UTC,2445949.062500,29.6633,-93.4786,0090,0.3020
1984-09-05 14:00:00 UTC,2445949.083333,29.6633,-93.4786,0090,0.2990
1984-09-05 14:30:00 UTC,2445949.104167,29.6633,-93.4786,0090,0.2990
1984-09-05 15:00:00 UTC,2445949.125000,29.6633,-93.4786,0090,0.3010
1984-09-05 15:30:00 UTC,2445949.145833,29.6633,-93.4786,0090,0.3010
1984-09-05 16:00:00 UTC,2445949.166667,29.6633,-93.4786,0090,0.3020
1984-09-05 16:30:00 UTC,2445949.187500,29.6633,-93.4786,0090,0.3030
1984-09-05 17:00:00 UTC,2445949.208333,29.6633,-93.4786,0090,0.3040
1984-09-05 17:30:00 UTC,2445949.229167,29.6633,-93.4786,0090,0.3030
1984-09-05 18:00:00 UTC,2445949.250000,29.6633,-93.4786,0090,0.3020
1984-09-05 18:30:00 UTC,2445949.270833,29.6633,-93.4786,0090,0.3030
1984-09-05 19:00:00 UTC,2445949.291667,29.6633,-93.4786,0090,0.3030
1984-09-05 19:30:00 UTC,2445949.312500,29.6633,-93.4786,0090,0.3030
1984-09-05 20:00:00 UTC,2445949.333333,29.6633,-93.4786,0090,0.3030
1984-09-05 20:30:00 UTC,2445949.354167,29.6633,-93.4786,0090,0.3030
1984-09-05 21:00:00 UTC,2445949.375000,29.6633,-93.4786,0090,0.3030
1984-09-05 21:30:00 UTC,2445949.395833,29.6633,-93.4786,0090,0.3030
1984-09-05 22:00:00 UTC,2445949.416667,29.6633,-93.4786,0090,0.3040
1984-09-05 22:30:00 UTC,2445949.437500,29.6633,-93.4786,0090,0.3040
1984-09-05 23:00:00 UTC,2445949.458333,29.6633,-93.4786,0090,0.3020
1984-09-05 23:30:00 UTC,2445949.479167,29.6633,-93.4786,0090,0.3010
1984-09-06 00:00:00 UTC,2445949.500000,29.6633,-93.4786,0090,0.3040